Time,TemperatureF,DewpointF,PressureIn,WindDirection,WindDirectionDegrees,WindSpeedMPH,WindSpeedGustMPH,Humidity,HourlyPrecipIn,Conditions,Clouds,dailyrainin,SoftwareType,DateUTC
2013-02-04 00:03:00,26.1,12.6,30.14,SW,225,2.0,8.5,53,0.00,,,0.00,WSDL version 420,2013-02-04 05:03:00,
2013-02-04 00:08:00,26.0,12.8,30.14,ESE,118,4.9,10.1,53,0.00,,,0.00,WSDL version 420,2013-02-04 05:08:00,
2013-02-04 00:13:00,25.9,12.7,30.14,WNW,303,3.0,10.1,53,0.00,,,0.00,WSDL version 420,2013-02-04 05:13:00,
2013-02-04 00:18:00,25.7,12.6,30.14,NE,48,1.3,6.0,53,0.00,,,0.00,WSDL version 420,2013-02-04 05:18:00,
2013-02-04 00:23:00,25.7,12.5,30.14,SE,124,2.2,6.5,53,0.00,,,0.00,WSDL version 420,2013-02-04 05:23:00,
2013-02-04 00:28:00,25.5,12.4,30.14,SSW,208,4.3,10.7,53,0.00,,,0.00,WSDL version 420,2013-02-04 05:28:00,
2013-02-04 00:33:00,25.5,12.4,30.14,SSW,208,4.0,10.7,53,0.00,,,0.00,WSDL version 420,2013-02-04 05:33:00,
2013-02-04 00:38:00,25.5,12.5,30.14,SW,231,5.0,12.8,53,0.00,,,0.00,WSDL version 420,2013-02-04 05:38:00,
2013-02-04 00:43:00,25.5,12.8,30.14,SW,228,6.3,12.8,54,0.00,,,0.00,WSDL version 420,2013-02-04 05:43:00,
2013-02-04 00:48:00,25.4,12.5,30.14,NW,321,3.7,10.7,54,0.00,,,0.00,WSDL version 420,2013-02-04 05:48:00,
2013-02-04 00:53:00,25.3,12.5,30.14,WNW,283,6.3,15.2,54,0.00,,,0.00,WSDL version 420,2013-02-04 05:53:00,
2013-02-04 00:58:00,25.3,12.6,30.14,West,280,6.0,15.2,54,0.00,,,0.00,WSDL version 420,2013-02-04 05:58:00,
2013-02-04 01:03:00,25.3,12.6,30.14,WSW,240,4.9,12.3,54,0.00,,,0.00,WSDL version 420,2013-02-04 06:03:00,
2013-02-04 01:08:00,25.3,12.5,30.14,West,275,6.6,10.3,54,0.00,,,0.00,WSDL version 420,2013-02-04 06:08:00,
2013-02-04 01:13:00,25.2,12.4,30.13,South,180,5.4,11.0,54,0.00,,,0.00,WSDL version 420,2013-02-04 06:13:00,
2013-02-04 01:18:00,25.2,12.4,30.14,SSW,199,4.8,12.5,54,0.00,,,0.00,WSDL version 420,2013-02-04 06:18:00,
2013-02-04 01:23:00,25.2,12.4,30.14,WSW,250,4.4,12.5,54,0.00,,,0.00,WSDL version 420,2013-02-04 06:23:00,
2013-02-04 01:28:00,25.2,12.4,30.14,SE,132,3.5,8.7,54,0.00,,,0.00,WSDL version 420,2013-02-04 06:28:00,
2013-02-04 01:33:00,25.2,12.4,30.13,WSW,248,3.6,9.6,54,0.00,,,0.00,WSDL version 420,2013-02-04 06:33:00,
2013-02-04 01:38:00,25.2,12.2,30.13,WNW,303,3.6,10.5,53,0.00,,,0.00,WSDL version 420,2013-02-04 06:38:00,
2013-02-04 01:43:00,25.2,12.0,30.13,WNW,300,4.6,10.5,53,0.00,,,0.00,WSDL version 420,2013-02-04 06:43:00,
2013-02-04 01:48:00,25.2,12.3,30.13,SSW,200,3.7,8.7,53,0.00,,,0.00,WSDL version 420,2013-02-04 06:48:00,
2013-02-04 01:53:00,25.2,12.2,30.13,NW,315,4.2,8.7,54,0.00,,,0.00,WSDL version 420,2013-02-04 06:53:00,
2013-02-04 01:58:00,25.2,12.2,30.13,SW,225,6.1,9.6,53,0.00,,,0.00,WSDL version 420,2013-02-04 06:58:00,
2013-02-04 02:03:00,25.2,12.1,30.14,West,280,4.1,9.6,53,0.00,,,0.00,WSDL version 420,2013-02-04 07:03:00,
2013-02-04 02:08:00,25.1,12.0,30.14,West,273,3.7,7.8,53,0.00,,,0.00,WSDL version 420,2013-02-04 07:08:00,
2013-02-04 02:13:00,25.1,12.0,30.14,WNW,283,6.2,11.9,53,0.00,,,0.00,WSDL version 420,2013-02-04 07:13:00,
2013-02-04 02:18:00,25.2,12.0,30.14,SW,215,3.8,11.9,53,0.00,,,0.00,WSDL version 420,2013-02-04 07:18:00,
2013-02-04 02:23:00,25.2,12.0,30.14,NW,320,5.6,8.1,53,0.00,,,0.00,WSDL version 420,2013-02-04 07:23:00,
2013-02-04 02:28:00,25.1,12.0,30.14,South,170,4.7,8.7,53,0.00,,,0.00,WSDL version 420,2013-02-04 07:28:00,
2013-02-04 02:33:00,25.2,12.1,30.14,WNW,293,4.5,10.3,53,0.00,,,0.00,WSDL version 420,2013-02-04 07:33:00,
2013-02-04 02:38:00,25.3,11.9,30.14,West,276,4.7,10.3,52,0.00,,,0.00,WSDL version 420,2013-02-04 07:38:00,
2013-02-04 02:43:00,25.3,11.8,30.14,West,270,7.6,10.3,52,0.00,,,0.00,WSDL version 420,2013-02-04 07:43:00,
2013-02-04 02:48:00,25.4,11.9,30.14,WNW,290,6.4,13.0,52,0.00,,,0.00,WSDL version 420,2013-02-04 07:48:00,
2013-02-04 02:53:00,25.4,11.9,30.14,WSW,253,6.0,13.0,52,0.00,,,0.00,WSDL version 420,2013-02-04 07:53:00,
2013-02-04 02:58:00,25.4,11.8,30.14,SW,220,6.7,10.7,51,0.00,,,0.00,WSDL version 420,2013-02-04 07:58:00,
2013-02-04 03:03:00,25.6,11.8,30.14,WSW,251,7.2,12.8,51,0.00,,,0.00,WSDL version 420,2013-02-04 08:03:00,
2013-02-04 03:08:00,25.8,11.7,30.14,WSW,250,6.5,14.5,50,0.00,,,0.00,WSDL version 420,2013-02-04 08:08:00,
2013-02-04 03:13:00,25.9,11.6,30.14,West,270,4.9,14.5,50,0.00,,,0.00,WSDL version 420,2013-02-04 08:13:00,
2013-02-04 03:18:00,25.9,11.5,30.14,West,265,6.0,14.3,50,0.00,,,0.00,WSDL version 420,2013-02-04 08:18:00,
2013-02-04 03:23:00,25.8,11.6,30.14,WNW,302,5.2,9.4,51,0.00,,,0.00,WSDL version 420,2013-02-04 08:23:00,
2013-02-04 03:28:00,25.7,11.8,30.14,WNW,284,5.9,10.5,51,0.00,,,0.00,WSDL version 420,2013-02-04 08:28:00,
2013-02-04 03:33:00,25.7,11.8,30.14,West,275,5.4,10.5,51,0.00,,,0.00,WSDL version 420,2013-02-04 08:33:00,
2013-02-04 03:38:00,25.5,12.0,30.14,West,262,5.4,9.4,52,0.00,,,0.00,WSDL version 420,2013-02-04 08:38:00,
2013-02-04 03:43:00,25.3,11.8,30.14,WSW,248,5.4,9.4,52,0.00,,,0.00,WSDL version 420,2013-02-04 08:43:00,
2013-02-04 03:48:00,25.3,11.8,30.14,West,270,5.6,9.8,52,0.00,,,0.00,WSDL version 420,2013-02-04 08:48:00,
2013-02-04 03:53:00,25.3,11.8,30.14,West,278,6.7,13.2,52,0.00,,,0.00,WSDL version 420,2013-02-04 08:53:00,
2013-02-04 03:58:00,25.5,12.0,30.14,West,276,6.2,13.2,52,0.00,,,0.00,WSDL version 420,2013-02-04 08:58:00,
2013-02-04 04:03:00,25.5,11.7,30.14,WSW,257,6.7,13.2,51,0.00,,,0.00,WSDL version 420,2013-02-04 09:03:00,
2013-02-04 04:08:00,25.4,11.8,30.15,SW,236,4.7,13.2,52,0.00,,,0.00,WSDL version 420,2013-02-04 09:08:00,
2013-02-04 04:13:00,25.3,11.8,30.15,West,259,4.5,10.5,52,0.00,,,0.00,WSDL version 420,2013-02-04 09:13:00,
2013-02-04 04:18:00,25.3,11.8,30.18,West,273,4.9,10.5,52,0.00,,,0.00,WSDL version 420,2013-02-04 09:18:00,
2013-02-04 04:23:00,25.3,11.8,30.18,West,270,4.7,10.3,52,0.00,,,0.00,WSDL version 420,2013-02-04 09:23:00,
2013-02-04 04:28:00,25.3,11.8,30.18,WSW,256,5.6,8.5,52,0.00,,,0.00,WSDL version 420,2013-02-04 09:28:00,
2013-02-04 04:33:00,25.2,11.7,30.18,West,264,5.5,7.8,52,0.00,,,0.00,WSDL version 420,2013-02-04 09:33:00,
2013-02-04 04:38:00,25.1,11.6,30.18,WSW,248,4.8,8.1,52,0.00,,,0.00,WSDL version 420,2013-02-04 09:38:00,
2013-02-04 04:43:00,25.2,11.7,30.18,West,270,2.7,8.1,52,0.00,,,0.00,WSDL version 420,2013-02-04 09:43:00,
2013-02-04 04:48:00,25.0,11.5,30.15,West,270,4.2,7.4,52,0.00,,,0.00,WSDL version 420,2013-02-04 09:48:00,
2013-02-04 04:53:00,24.9,11.4,30.15,WSW,253,3.6,7.4,52,0.00,,,0.00,WSDL version 420,2013-02-04 09:53:00,
2013-02-04 04:58:00,24.9,11.4,30.15,West,268,3.1,6.5,52,0.00,,,0.00,WSDL version 420,2013-02-04 09:58:00,
2013-02-04 05:03:00,25.0,11.5,30.15,West,281,3.2,8.7,52,0.00,,,0.00,WSDL version 420,2013-02-04 10:03:00,
2013-02-04 05:08:00,25.0,11.5,30.15,West,265,4.3,10.1,52,0.00,,,0.00,WSDL version 420,2013-02-04 10:08:00,
2013-02-04 05:13:00,25.1,11.6,30.15,West,276,3.6,10.1,52,0.00,,,0.00,WSDL version 420,2013-02-04 10:13:00,
2013-02-04 05:18:00,25.3,11.7,30.18,West,273,4.0,7.8,52,0.00,,,0.00,WSDL version 420,2013-02-04 10:18:00,
2013-02-04 05:23:00,25.3,11.8,30.18,West,281,3.2,7.6,52,0.00,,,0.00,WSDL version 420,2013-02-04 10:23:00,
2013-02-04 05:28:00,25.3,11.8,30.18,WSW,258,4.0,6.7,52,0.00,,,0.00,WSDL version 420,2013-02-04 10:28:00,
2013-02-04 05:33:00,25.5,11.7,30.15,West,275,3.9,6.7,51,0.00,,,0.00,WSDL version 420,2013-02-04 10:33:00,
2013-02-04 05:38:00,25.7,11.8,30.15,WSW,256,2.9,6.3,51,0.00,,,0.00,WSDL version 420,2013-02-04 10:38:00,
2013-02-04 05:43:00,26.0,11.6,30.15,WSW,258,3.9,7.6,49,0.00,,,0.00,WSDL version 420,2013-02-04 10:43:00,
2013-02-04 05:48:00,26.1,11.8,30.15,WSW,245,3.8,8.1,49,0.00,,,0.00,WSDL version 420,2013-02-04 10:48:00,
2013-02-04 05:53:00,26.2,12.0,30.15,SW,233,1.8,8.1,51,0.00,,,0.00,WSDL version 420,2013-02-04 10:53:00,
2013-02-04 05:58:00,26.5,12.0,30.15,West,270,3.4,6.0,49,0.00,,,0.00,WSDL version 420,2013-02-04 10:58:00,
2013-02-04 06:03:00,26.6,12.2,30.18,WSW,245,1.9,6.0,50,0.00,,,0.00,WSDL version 420,2013-02-04 11:03:00,
2013-02-04 06:08:00,26.6,12.4,30.18,West,280,0.0,3.6,51,0.00,,,0.00,WSDL version 420,2013-02-04 11:08:00,
2013-02-04 06:13:00,26.6,12.6,30.18,West,267,1.8,3.4,51,0.00,,,0.00,WSDL version 420,2013-02-04 11:13:00,
2013-02-04 06:18:00,26.6,12.6,30.18,WNW,293,1.0,3.8,51,0.00,,,0.00,WSDL version 420,2013-02-04 11:18:00,
2013-02-04 06:23:00,26.6,12.6,30.18,WNW,295,2.0,3.8,51,0.00,,,0.00,WSDL version 420,2013-02-04 11:23:00,
2013-02-04 06:28:00,26.4,12.6,30.18,WNW,293,3.0,4.3,52,0.00,,,0.00,WSDL version 420,2013-02-04 11:28:00,
2013-02-04 06:33:00,26.4,12.8,30.15,WNW,293,2.7,4.3,52,0.00,,,0.00,WSDL version 420,2013-02-04 11:33:00,
2013-02-04 06:38:00,26.4,12.6,30.15,WNW,285,2.7,4.3,51,0.00,,,0.00,WSDL version 420,2013-02-04 11:38:00,
2013-02-04 06:43:00,26.6,12.6,30.15,West,273,1.5,4.3,51,0.00,,,0.00,WSDL version 420,2013-02-04 11:43:00,
2013-02-04 06:48:00,26.8,12.5,30.15,WSW,255,3.8,6.3,49,0.00,,,0.00,WSDL version 420,2013-02-04 11:48:00,
2013-02-04 06:53:00,27.2,12.2,30.15,West,278,3.0,6.3,48,0.00,,,0.00,WSDL version 420,2013-02-04 11:53:00,
2013-02-04 06:58:00,27.4,12.7,30.15,SW,233,2.7,4.9,50,0.00,,,0.00,WSDL version 420,2013-02-04 11:58:00,
2013-02-04 07:03:00,27.5,12.7,30.18,West,273,2.1,4.9,49,0.00,,,0.00,WSDL version 420,2013-02-04 12:03:00,
2013-02-04 07:08:00,-999.0,-99.9,30.18,West,281,3.0,4.9,-999,0.00,,,0.00,WSDL version 420,2013-02-04 12:08:00,
2013-02-04 07:13:00,27.9,12.6,30.18,West,273,1.2,4.7,49,0.00,,,0.00,WSDL version 420,2013-02-04 12:13:00,
2013-02-04 07:18:00,27.7,12.7,30.18,WNW,293,2.8,4.3,49,0.00,,,0.00,WSDL version 420,2013-02-04 12:18:00,
2013-02-04 07:23:00,27.6,12.8,30.18,WNW,290,2.3,3.6,49,0.00,,,0.00,WSDL version 420,2013-02-04 12:23:00,
2013-02-04 07:28:00,27.7,12.6,30.18,WSW,255,3.2,4.3,48,0.00,,,0.00,WSDL version 420,2013-02-04 12:28:00,
2013-02-04 07:33:00,27.9,12.5,30.22,WNW,290,3.7,4.9,48,0.00,,,0.00,WSDL version 420,2013-02-04 12:33:00,
2013-02-04 07:38:00,28.1,12.6,30.22,West,281,2.7,4.9,47,0.00,,,0.00,WSDL version 420,2013-02-04 12:38:00,
2013-02-04 07:43:00,28.4,12.2,30.22,West,260,3.5,5.6,45,0.00,,,0.00,WSDL version 420,2013-02-04 12:43:00,
2013-02-04 07:48:00,28.9,12.0,30.21,WNW,293,1.2,5.6,45,0.00,,,0.00,WSDL version 420,2013-02-04 12:48:00,
2013-02-04 07:53:00,28.8,12.4,30.21,West,260,0.8,3.6,45,0.00,,,0.00,WSDL version 420,2013-02-04 12:53:00,
2013-02-04 07:58:00,28.8,12.6,30.22,West,278,2.6,3.4,46,0.00,,,0.00,WSDL version 420,2013-02-04 12:58:00,
2013-02-04 08:03:00,28.8,12.8,30.22,West,278,3.1,4.9,45,0.00,,,0.00,WSDL version 420,2013-02-04 13:03:00,
2013-02-04 08:08:00,29.0,12.4,30.22,West,264,3.0,5.4,45,0.00,,,0.00,WSDL version 420,2013-02-04 13:08:00,
2013-02-04 08:13:00,29.2,12.4,30.22,West,265,2.7,6.0,45,0.00,,,0.00,WSDL version 420,2013-02-04 13:13:00,
2013-02-04 08:18:00,29.3,12.6,30.21,WNW,290,3.1,6.0,45,0.00,,,0.00,WSDL version 420,2013-02-04 13:18:00,
2013-02-04 08:23:00,29.4,12.7,30.21,NW,313,1.9,3.8,45,0.00,,,0.00,WSDL version 420,2013-02-04 13:23:00,
2013-02-04 08:28:00,29.5,12.9,30.21,WNW,300,0.0,3.8,45,0.00,,,0.00,WSDL version 420,2013-02-04 13:28:00,
2013-02-04 08:33:00,29.8,13.1,30.21,WNW,290,0.0,2.2,45,0.00,,,0.00,WSDL version 420,2013-02-04 13:33:00,
2013-02-04 08:38:00,30.2,13.7,30.21,WNW,301,1.4,2.9,45,0.00,,,0.00,WSDL version 420,2013-02-04 13:38:00,
2013-02-04 08:43:00,30.4,13.6,30.21,WNW,287,2.4,3.6,45,0.00,,,0.00,WSDL version 420,2013-02-04 13:43:00,
2013-02-04 08:48:00,30.7,13.5,30.21,WNW,300,2.4,4.5,44,0.00,,,0.00,WSDL version 420,2013-02-04 13:48:00,
2013-02-04 08:53:00,31.0,13.7,30.21,WSW,250,1.5,4.5,44,0.00,,,0.00,WSDL version 420,2013-02-04 13:53:00,
2013-02-04 08:58:00,31.0,13.5,30.21,West,264,2.9,4.3,43,0.00,,,0.00,WSDL version 420,2013-02-04 13:58:00,
2013-02-04 09:03:00,30.9,13.3,30.21,West,260,3.5,6.0,43,0.00,,,0.00,WSDL version 420,2013-02-04 14:03:00,
2013-02-04 09:08:00,30.9,13.7,30.21,West,270,2.4,6.0,44,0.00,,,0.00,WSDL version 420,2013-02-04 14:08:00,
2013-02-04 09:13:00,30.8,13.5,30.21,West,280,2.6,3.8,44,0.00,,,0.00,WSDL version 420,2013-02-04 14:13:00,
2013-02-04 09:18:00,30.8,13.6,30.25,West,267,3.2,6.0,44,0.00,,,0.00,WSDL version 420,2013-02-04 14:18:00,
2013-02-04 09:23:00,30.7,13.5,30.25,West,278,2.7,6.0,44,0.00,,,0.00,WSDL version 420,2013-02-04 14:23:00,
2013-02-04 09:28:00,30.7,13.5,30.25,SW,230,3.1,5.4,44,0.00,,,0.00,WSDL version 420,2013-02-04 14:28:00,
2013-02-04 09:33:00,30.6,13.6,30.25,WSW,248,3.6,5.4,45,0.00,,,0.00,WSDL version 420,2013-02-04 14:33:00,
2013-02-04 09:38:00,30.5,13.8,30.25,WSW,250,3.4,5.8,45,0.00,,,0.00,WSDL version 420,2013-02-04 14:38:00,
2013-02-04 09:43:00,30.8,13.9,30.25,WSW,256,3.4,5.8,44,0.00,,,0.00,WSDL version 420,2013-02-04 14:43:00,
2013-02-04 09:48:00,31.1,14.3,30.25,West,265,3.9,5.8,45,0.00,,,0.00,WSDL version 420,2013-02-04 14:48:00,
2013-02-04 09:53:00,31.1,14.3,30.25,WSW,251,3.0,5.8,45,0.00,,,0.00,WSDL version 420,2013-02-04 14:53:00,
2013-02-04 09:58:00,31.3,14.5,30.25,West,273,3.5,5.8,45,0.00,,,0.00,WSDL version 420,2013-02-04 14:58:00,
2013-02-04 10:03:00,31.8,14.9,30.25,West,270,3.0,5.8,45,0.00,,,0.00,WSDL version 420,2013-02-04 15:03:00,
2013-02-04 10:08:00,32.1,13.6,30.25,West,268,2.6,4.3,45,0.00,,,0.00,WSDL version 420,2013-02-04 15:08:00,
2013-02-04 10:13:00,32.4,13.5,30.25,WNW,300,0.4,4.3,46,0.00,,,0.00,WSDL version 420,2013-02-04 15:13:00,
2013-02-04 10:18:00,32.8,13.8,30.21,WNW,285,2.1,2.7,45,0.00,,,0.00,WSDL version 420,2013-02-04 15:18:00,
2013-02-04 10:23:00,33.3,14.5,30.21,West,265,1.7,3.6,45,0.00,,,0.00,WSDL version 420,2013-02-04 15:23:00,
2013-02-04 10:28:00,33.8,14.5,30.21,WNW,284,3.9,4.9,44,0.00,,,0.00,WSDL version 420,2013-02-04 15:28:00,
2013-02-04 10:33:00,34.4,13.9,30.24,West,263,4.2,6.5,41,0.00,,,0.00,WSDL version 420,2013-02-04 15:33:00,
2013-02-04 10:38:00,35.0,13.6,30.24,WSW,248,3.5,6.5,40,0.00,,,0.00,WSDL version 420,2013-02-04 15:38:00,
2013-02-04 10:43:00,35.6,13.6,30.24,WSW,250,3.4,7.4,39,0.00,,,0.00,WSDL version 420,2013-02-04 15:43:00,
2013-02-04 10:48:00,36.2,13.2,30.24,West,278,3.7,7.4,39,0.00,,,0.00,WSDL version 420,2013-02-04 15:48:00,
2013-02-04 10:53:00,36.9,14.2,30.24,West,264,4.3,7.2,38,0.00,,,0.00,WSDL version 420,2013-02-04 15:53:00,
2013-02-04 10:58:00,37.4,14.4,30.24,West,273,4.3,7.2,39,0.00,,,0.00,WSDL version 420,2013-02-04 15:58:00,
2013-02-04 11:03:00,38.3,15.5,30.24,WNW,287,3.4,5.6,39,0.00,,,0.00,WSDL version 420,2013-02-04 16:03:00,
2013-02-04 11:08:00,39.4,15.0,30.24,West,280,4.0,6.5,36,0.00,,,0.00,WSDL version 420,2013-02-04 16:08:00,
2013-02-04 11:13:00,40.4,15.2,30.23,West,267,2.3,6.5,36,0.00,,,0.00,WSDL version 420,2013-02-04 16:13:00,
2013-02-04 11:18:00,41.2,15.9,30.23,WNW,288,1.9,5.6,35,0.00,,,0.00,WSDL version 420,2013-02-04 16:18:00,
2013-02-04 11:23:00,41.9,16.6,30.23,WSW,258,1.5,4.3,35,0.00,,,0.00,WSDL version 420,2013-02-04 16:23:00,
2013-02-04 11:28:00,42.3,15.4,30.23,West,276,1.5,4.0,33,0.00,,,0.00,WSDL version 420,2013-02-04 16:28:00,
2013-02-04 11:33:00,42.7,15.2,30.23,WSW,258,1.6,4.0,32,0.00,,,0.00,WSDL version 420,2013-02-04 16:33:00,
2013-02-04 11:38:00,43.1,15.1,30.23,SW,219,1.1,6.7,31,0.00,,,0.00,WSDL version 420,2013-02-04 16:38:00,
2013-02-04 11:43:00,43.3,14.4,30.23,WSW,245,3.8,6.7,30,0.00,,,0.00,WSDL version 420,2013-02-04 16:43:00,
2013-02-04 11:48:00,43.4,14.2,30.20,ENE,65,1.8,5.6,31,0.00,,,0.00,WSDL version 420,2013-02-04 16:48:00,
2013-02-04 11:53:00,43.4,13.6,30.20,WSW,245,2.5,8.7,29,0.00,,,0.00,WSDL version 420,2013-02-04 16:53:00,
2013-02-04 11:58:00,43.1,13.4,30.20,WSW,243,3.2,8.7,30,0.00,,,0.00,WSDL version 420,2013-02-04 16:58:00,
2013-02-04 12:03:00,43.4,13.7,30.20,WNW,284,4.4,7.4,29,0.00,,,0.00,WSDL version 420,2013-02-04 17:03:00,
2013-02-04 12:08:00,43.6,14.1,30.20,WSW,248,2.3,6.5,30,0.00,,,0.00,WSDL version 420,2013-02-04 17:08:00,
2013-02-04 12:13:00,43.7,14.1,30.20,WSW,253,2.7,5.4,30,0.00,,,0.00,WSDL version 420,2013-02-04 17:13:00,
2013-02-04 12:18:00,44.3,14.5,30.20,West,260,2.7,5.8,30,0.00,,,0.00,WSDL version 420,2013-02-04 17:18:00,
2013-02-04 12:23:00,44.8,15.0,30.20,West,270,2.3,5.8,30,0.00,,,0.00,WSDL version 420,2013-02-04 17:23:00,
2013-02-04 12:28:00,45.4,15.1,30.20,WNW,290,2.1,6.0,29,0.00,,,0.00,WSDL version 420,2013-02-04 17:28:00,
2013-02-04 12:33:00,45.9,14.8,30.19,NW,325,4.3,7.8,28,0.00,,,0.00,WSDL version 420,2013-02-04 17:33:00,
2013-02-04 12:38:00,46.1,14.9,30.19,NW,325,1.9,7.8,28,0.00,,,0.00,WSDL version 420,2013-02-04 17:38:00,
2013-02-04 12:43:00,46.5,15.3,30.19,NW,320,3.9,5.8,28,0.00,,,0.00,WSDL version 420,2013-02-04 17:43:00,
2013-02-04 12:48:00,47.2,15.7,30.19,WNW,293,3.3,5.8,28,0.00,,,0.00,WSDL version 420,2013-02-04 17:48:00,
2013-02-04 12:53:00,47.7,16.0,30.19,WNW,298,5.0,7.8,27,0.00,,,0.00,WSDL version 420,2013-02-04 17:53:00,
2013-02-04 12:58:00,47.4,15.8,30.19,West,264,1.6,7.8,28,0.00,,,0.00,WSDL version 420,2013-02-04 17:58:00,
2013-02-04 13:03:00,47.8,16.1,30.16,WNW,295,3.7,5.6,27,0.00,,,0.00,WSDL version 420,2013-02-04 18:03:00,
2013-02-04 13:08:00,47.9,16.0,30.16,West,270,4.1,6.0,27,0.00,,,0.00,WSDL version 420,2013-02-04 18:08:00,
2013-02-04 13:13:00,48.4,15.9,30.16,West,276,1.2,6.0,27,0.00,,,0.00,WSDL version 420,2013-02-04 18:13:00,
2013-02-04 13:18:00,48.7,16.3,30.16,WSW,240,2.2,4.5,27,0.00,,,0.00,WSDL version 420,2013-02-04 18:18:00,
2013-02-04 13:23:00,48.7,16.2,30.16,NNW,340,2.9,4.5,27,0.00,,,0.00,WSDL version 420,2013-02-04 18:23:00,
2013-02-04 13:28:00,48.5,16.1,30.16,West,260,1.0,5.8,27,0.00,,,0.00,WSDL version 420,2013-02-04 18:28:00,
2013-02-04 13:33:00,49.0,16.5,30.16,WNW,299,1.3,5.8,27,0.00,,,0.00,WSDL version 420,2013-02-04 18:33:00,
2013-02-04 13:38:00,49.1,16.6,30.16,NW,320,2.5,5.6,27,0.00,,,0.00,WSDL version 420,2013-02-04 18:38:00,
2013-02-04 13:43:00,49.5,16.6,30.15,NW,309,4.5,7.2,27,0.00,,,0.00,WSDL version 420,2013-02-04 18:43:00,
2013-02-04 13:48:00,49.7,16.8,30.12,WNW,287,3.1,7.2,26,0.00,,,0.00,WSDL version 420,2013-02-04 18:48:00,
2013-02-04 13:53:00,49.8,16.8,30.12,SSE,153,1.8,4.9,27,0.00,,,0.00,WSDL version 420,2013-02-04 18:53:00,
2013-02-04 13:58:00,49.3,16.7,30.12,West,268,2.9,4.7,27,0.00,,,0.00,WSDL version 420,2013-02-04 18:58:00,
2013-02-04 14:03:00,49.1,16.6,30.12,NNW,338,0.4,4.7,27,0.00,,,0.00,WSDL version 420,2013-02-04 19:03:00,
2013-02-04 14:08:00,49.3,16.7,30.12,West,262,2.0,4.0,27,0.00,,,0.00,WSDL version 420,2013-02-04 19:08:00,
2013-02-04 14:13:00,49.2,16.6,30.12,NW,313,2.9,5.8,27,0.00,,,0.00,WSDL version 420,2013-02-04 19:13:00,
2013-02-04 14:18:00,49.5,16.9,30.12,NW,326,3.0,5.8,27,0.00,,,0.00,WSDL version 420,2013-02-04 19:18:00,
2013-02-04 14:23:00,49.4,16.7,30.12,West,270,4.5,7.6,27,0.00,,,0.00,WSDL version 420,2013-02-04 19:23:00,
2013-02-04 14:28:00,49.7,16.8,30.12,NW,304,2.5,8.5,26,0.00,,,0.00,WSDL version 420,2013-02-04 19:28:00,
2013-02-04 14:33:00,49.9,16.7,30.12,WSW,239,1.5,8.5,27,0.00,,,0.00,WSDL version 420,2013-02-04 19:33:00,
2013-02-04 14:38:00,49.7,16.8,30.12,WNW,300,3.3,6.3,26,0.00,,,0.00,WSDL version 420,2013-02-04 19:38:00,
2013-02-04 14:43:00,49.7,16.6,30.12,WNW,302,2.0,6.3,27,0.00,,,0.00,WSDL version 420,2013-02-04 19:43:00,
2013-02-04 14:48:00,49.7,16.7,30.12,West,263,2.1,6.0,27,0.00,,,0.00,WSDL version 420,2013-02-04 19:48:00,
2013-02-04 14:53:00,49.6,16.9,30.12,SSW,198,3.4,6.0,26,0.00,,,0.00,WSDL version 420,2013-02-04 19:53:00,
2013-02-04 14:58:00,49.4,16.8,30.12,WNW,295,2.5,6.0,27,0.00,,,0.00,WSDL version 420,2013-02-04 19:58:00,
2013-02-04 15:03:00,49.3,16.6,30.12,West,280,3.5,6.0,27,0.00,,,0.00,WSDL version 420,2013-02-04 20:03:00,
2013-02-04 15:08:00,49.4,16.8,30.12,East,96,1.0,6.0,27,0.00,,,0.00,WSDL version 420,2013-02-04 20:08:00,
2013-02-04 15:13:00,49.2,16.7,30.12,WNW,285,2.5,4.9,27,0.00,,,0.00,WSDL version 420,2013-02-04 20:13:00,
2013-02-04 15:18:00,49.0,16.4,30.12,West,264,3.7,5.8,27,0.00,,,0.00,WSDL version 420,2013-02-04 20:18:00,
2013-02-04 15:23:00,48.4,15.5,30.12,WNW,283,4.2,6.5,27,0.00,,,0.00,WSDL version 420,2013-02-04 20:23:00,
2013-02-04 15:28:00,48.1,15.7,30.12,WSW,238,4.4,6.5,27,0.00,,,0.00,WSDL version 420,2013-02-04 20:28:00,
2013-02-04 15:33:00,47.7,15.3,30.12,NW,318,1.8,7.4,27,0.00,,,0.00,WSDL version 420,2013-02-04 20:33:00,
2013-02-04 15:38:00,47.7,15.3,30.12,WNW,285,3.1,7.4,27,0.00,,,0.00,WSDL version 420,2013-02-04 20:38:00,
2013-02-04 15:43:00,47.6,15.3,30.13,WNW,295,2.1,7.2,27,0.00,,,0.00,WSDL version 420,2013-02-04 20:43:00,
2013-02-04 15:48:00,47.4,15.1,30.13,West,275,2.5,5.6,27,0.00,,,0.00,WSDL version 420,2013-02-04 20:48:00,
2013-02-04 15:53:00,47.3,15.0,30.13,NW,312,2.9,5.6,27,0.00,,,0.00,WSDL version 420,2013-02-04 20:53:00,
2013-02-04 15:58:00,46.9,14.7,30.13,NE,35,2.4,5.6,27,0.00,,,0.00,WSDL version 420,2013-02-04 20:58:00,
2013-02-04 16:03:00,46.8,14.6,30.13,SW,236,3.1,6.3,27,0.00,,,0.00,WSDL version 420,2013-02-04 21:03:00,
2013-02-04 16:08:00,46.6,14.4,30.13,WSW,244,3.0,6.3,27,0.00,,,0.00,WSDL version 420,2013-02-04 21:08:00,
2013-02-04 16:13:00,46.6,14.4,30.13,NW,305,3.4,6.0,27,0.00,,,0.00,WSDL version 420,2013-02-04 21:13:00,
2013-02-04 16:18:00,46.6,14.4,30.13,SW,219,0.1,5.6,27,0.00,,,0.00,WSDL version 420,2013-02-04 21:18:00,
2013-02-04 16:23:00,46.6,14.4,30.13,West,275,2.5,7.4,27,0.00,,,0.00,WSDL version 420,2013-02-04 21:23:00,
2013-02-04 16:28:00,46.3,14.6,30.13,NW,304,0.8,7.4,28,0.00,,,0.00,WSDL version 420,2013-02-04 21:28:00,
2013-02-04 16:33:00,46.2,14.9,30.13,WSW,243,1.4,3.8,28,0.00,,,0.00,WSDL version 420,2013-02-04 21:33:00,
2013-02-04 16:38:00,46.1,14.8,30.13,WSW,245,0.0,3.6,28,0.00,,,0.00,WSDL version 420,2013-02-04 21:38:00,
2013-02-04 16:43:00,46.0,14.8,30.13,West,264,1.9,3.8,28,0.00,,,0.00,WSDL version 420,2013-02-04 21:43:00,
2013-02-04 16:48:00,45.9,14.7,30.13,WNW,293,1.9,4.3,28,0.00,,,0.00,WSDL version 420,2013-02-04 21:48:00,
2013-02-04 16:53:00,45.8,14.5,30.13,NE,53,0.4,4.3,28,0.00,,,0.00,WSDL version 420,2013-02-04 21:53:00,
2013-02-04 16:58:00,45.4,14.2,30.13,WSW,239,0.3,3.4,28,0.00,,,0.00,WSDL version 420,2013-02-04 21:58:00,
2013-02-04 17:03:00,45.2,14.0,30.13,NNW,329,0.4,3.4,28,0.00,,,0.00,WSDL version 420,2013-02-04 22:03:00,
2013-02-04 17:08:00,45.0,13.8,30.13,East,100,0.5,2.9,28,0.00,,,0.00,WSDL version 420,2013-02-04 22:08:00,
2013-02-04 17:13:00,44.7,13.6,30.13,NW,323,0.4,2.9,28,0.00,,,0.00,WSDL version 420,2013-02-04 22:13:00,
2013-02-04 17:18:00,44.4,13.9,30.13,WSW,248,0.0,2.9,29,0.00,,,0.00,WSDL version 420,2013-02-04 22:18:00,
2013-02-04 17:23:00,43.9,13.7,30.13,NNW,330,1.0,1.6,29,0.00,,,0.00,WSDL version 420,2013-02-04 22:23:00,
2013-02-04 17:28:00,43.6,13.5,30.13,SW,235,0.0,1.6,29,0.00,,,0.00,WSDL version 420,2013-02-04 22:28:00,
2013-02-04 17:33:00,43.3,13.2,30.13,NW,310,1.1,2.9,29,0.00,,,0.00,WSDL version 420,2013-02-04 22:33:00,
2013-02-04 17:38:00,42.9,13.5,30.13,WSW,248,0.6,2.9,31,0.00,,,0.00,WSDL version 420,2013-02-04 22:38:00,
2013-02-04 17:43:00,42.5,14.0,30.13,WNW,284,0.6,2.5,31,0.00,,,0.00,WSDL version 420,2013-02-04 22:43:00,
2013-02-04 17:48:00,42.2,14.1,30.13,WNW,290,2.1,4.0,31,0.00,,,0.00,WSDL version 420,2013-02-04 22:48:00,
2013-02-04 17:53:00,42.0,14.0,30.13,WNW,287,0.1,4.0,32,0.00,,,0.00,WSDL version 420,2013-02-04 22:53:00,
2013-02-04 17:58:00,41.5,13.9,30.13,West,270,0.0,2.2,32,0.00,,,0.00,WSDL version 420,2013-02-04 22:58:00,
2013-02-04 18:03:00,41.2,13.8,30.13,West,267,0.0,1.3,33,0.00,,,0.00,WSDL version 420,2013-02-04 23:03:00,
2013-02-04 18:08:00,40.6,14.2,30.14,West,275,0.0,1.3,35,0.00,,,0.00,WSDL version 420,2013-02-04 23:08:00,
2013-02-04 18:13:00,40.4,14.2,30.14,WSW,254,0.4,2.2,35,0.00,,,0.00,WSDL version 420,2013-02-04 23:13:00,
2013-02-04 18:18:00,40.1,14.4,30.14,WNW,298,0.0,3.1,34,0.00,,,0.00,WSDL version 420,2013-02-04 23:18:00,
2013-02-04 18:23:00,40.1,13.7,30.14,WNW,290,0.7,3.1,34,0.00,,,0.00,WSDL version 420,2013-02-04 23:23:00,
2013-02-04 18:28:00,39.7,15.0,30.14,SSW,205,0.0,3.1,36,0.00,,,0.00,WSDL version 420,2013-02-04 23:28:00,
2013-02-04 18:33:00,39.1,15.2,30.14,SE,140,0.6,2.7,37,0.00,,,0.00,WSDL version 420,2013-02-04 23:33:00,
2013-02-04 18:38:00,38.7,15.5,30.14,WSW,256,0.8,3.4,39,0.00,,,0.00,WSDL version 420,2013-02-04 23:38:00,
2013-02-04 18:43:00,38.1,15.4,30.14,WNW,293,0.9,3.4,39,0.00,,,0.00,WSDL version 420,2013-02-04 23:43:00,
2013-02-04 18:48:00,37.6,14.9,30.14,WNW,298,0.6,3.4,39,0.00,,,0.00,WSDL version 420,2013-02-04 23:48:00,
2013-02-04 18:53:00,37.5,14.7,30.14,West,260,0.6,3.4,39,0.00,,,0.00,WSDL version 420,2013-02-04 23:53:00,
2013-02-04 18:58:00,37.0,14.9,30.14,West,270,0.0,2.5,40,0.00,,,0.00,WSDL version 420,2013-02-04 23:58:00,
2013-02-04 19:03:00,36.6,14.6,30.14,West,278,0.0,1.6,40,0.00,,,0.00,WSDL version 420,2013-02-05 00:03:00,
2013-02-04 19:08:00,36.2,14.2,30.14,West,275,1.0,2.2,40,0.00,,,0.00,WSDL version 420,2013-02-05 00:08:00,
2013-02-04 19:13:00,35.8,13.8,30.14,West,281,0.8,2.5,40,0.00,,,0.00,WSDL version 420,2013-02-05 00:13:00,
2013-02-04 19:18:00,35.5,14.0,30.14,West,278,1.1,2.5,41,0.00,,,0.00,WSDL version 420,2013-02-05 00:18:00,
2013-02-04 19:23:00,35.1,13.8,30.14,West,270,1.4,2.7,41,0.00,,,0.00,WSDL version 420,2013-02-05 00:23:00,
2013-02-04 19:28:00,34.8,13.5,30.14,WSW,255,0.5,2.7,41,0.00,,,0.00,WSDL version 420,2013-02-05 00:28:00,
2013-02-04 19:33:00,34.6,13.5,30.14,WSW,248,0.3,2.5,41,0.00,,,0.00,WSDL version 420,2013-02-05 00:33:00,
2013-02-04 19:38:00,34.4,13.5,30.14,WNW,288,1.0,2.5,42,0.00,,,0.00,WSDL version 420,2013-02-05 00:38:00,
2013-02-04 19:43:00,34.2,13.4,30.14,WNW,293,0.5,2.5,42,0.00,,,0.00,WSDL version 420,2013-02-05 00:43:00,
2013-02-04 19:48:00,34.0,13.3,30.14,West,267,0.7,2.0,42,0.00,,,0.00,WSDL version 420,2013-02-05 00:48:00,
2013-02-04 19:53:00,34.0,13.3,30.14,West,270,0.0,2.0,42,0.00,,,0.00,WSDL version 420,2013-02-05 00:53:00,
2013-02-04 19:58:00,34.0,13.3,30.14,West,278,0.2,2.0,42,0.00,,,0.00,WSDL version 420,2013-02-05 00:58:00,
2013-02-04 20:03:00,33.8,13.3,30.14,West,280,1.0,2.2,42,0.00,,,0.00,WSDL version 420,2013-02-05 01:03:00,
2013-02-04 20:08:00,33.9,13.6,30.14,West,273,0.6,2.2,43,0.00,,,0.00,WSDL version 420,2013-02-05 01:08:00,
2013-02-04 20:13:00,33.9,13.7,30.14,West,270,0.0,1.6,43,0.00,,,0.00,WSDL version 420,2013-02-05 01:13:00,
2013-02-04 20:18:00,34.0,13.8,30.14,WNW,287,0.0,2.0,43,0.00,,,0.00,WSDL version 420,2013-02-05 01:18:00,
2013-02-04 20:23:00,34.1,13.9,30.14,West,273,1.8,2.5,43,0.00,,,0.00,WSDL version 420,2013-02-05 01:23:00,
2013-02-04 20:28:00,34.3,14.5,30.14,West,276,1.8,2.5,44,0.00,,,0.00,WSDL version 420,2013-02-05 01:28:00,
2013-02-04 20:33:00,34.5,14.9,30.14,West,273,1.6,2.5,44,0.00,,,0.00,WSDL version 420,2013-02-05 01:33:00,
2013-02-04 20:38:00,34.5,14.9,30.14,West,273,1.7,3.1,44,0.00,,,0.00,WSDL version 420,2013-02-05 01:38:00,
2013-02-04 20:43:00,34.8,15.1,30.14,West,280,2.3,3.1,44,0.00,,,0.00,WSDL version 420,2013-02-05 01:43:00,
2013-02-04 20:48:00,34.9,15.2,30.14,WNW,293,2.7,4.0,44,0.00,,,0.00,WSDL version 420,2013-02-05 01:48:00,
2013-02-04 20:53:00,35.2,15.3,30.14,West,281,3.3,5.4,44,0.00,,,0.00,WSDL version 420,2013-02-05 01:53:00,
2013-02-04 20:58:00,35.7,15.3,30.14,WSW,239,4.0,7.8,42,0.00,,,0.00,WSDL version 420,2013-02-05 01:58:00,
2013-02-04 21:03:00,36.2,15.3,30.14,WSW,250,4.3,7.8,42,0.00,,,0.00,WSDL version 420,2013-02-05 02:03:00,
2013-02-04 21:08:00,36.6,15.5,30.14,SW,225,3.0,6.3,41,0.00,,,0.00,WSDL version 420,2013-02-05 02:08:00,
2013-02-04 21:13:00,36.7,15.6,30.13,WNW,302,3.8,5.6,41,0.00,,,0.00,WSDL version 420,2013-02-05 02:13:00,
2013-02-04 21:18:00,36.6,15.1,30.14,WNW,295,2.3,5.6,41,0.00,,,0.00,WSDL version 420,2013-02-05 02:18:00,
2013-02-04 21:23:00,36.4,14.9,30.14,WNW,285,2.2,4.3,41,0.00,,,0.00,WSDL version 420,2013-02-05 02:23:00,
2013-02-04 21:28:00,36.2,15.0,30.14,West,278,1.9,4.0,42,0.00,,,0.00,WSDL version 420,2013-02-05 02:28:00,
2013-02-04 21:33:00,35.8,15.0,30.14,West,278,2.4,3.6,42,0.00,,,0.00,WSDL version 420,2013-02-05 02:33:00,
2013-02-04 21:38:00,35.6,14.8,30.14,WNW,283,3.3,4.3,42,0.00,,,0.00,WSDL version 420,2013-02-05 02:38:00,
2013-02-04 21:43:00,35.7,14.9,30.14,West,273,2.6,4.3,42,0.00,,,0.00,WSDL version 420,2013-02-05 02:43:00,
2013-02-04 21:48:00,35.9,15.2,30.14,West,273,3.0,4.3,42,0.00,,,0.00,WSDL version 420,2013-02-05 02:48:00,
2013-02-04 21:53:00,36.1,15.3,30.14,WNW,283,2.3,4.0,42,0.00,,,0.00,WSDL version 420,2013-02-05 02:53:00,
2013-02-04 21:58:00,36.1,15.4,30.14,WNW,293,2.1,4.9,42,0.00,,,0.00,WSDL version 420,2013-02-05 02:58:00,
2013-02-04 22:03:00,36.3,15.4,30.13,West,278,0.7,4.9,42,0.00,,,0.00,WSDL version 420,2013-02-05 03:03:00,
2013-02-04 22:08:00,36.1,15.3,30.13,West,270,1.6,4.0,42,0.00,,,0.00,WSDL version 420,2013-02-05 03:08:00,
2013-02-04 22:13:00,36.1,15.3,30.13,WSW,253,2.6,4.7,42,0.00,,,0.00,WSDL version 420,2013-02-05 03:13:00,
2013-02-04 22:18:00,36.1,15.3,30.17,SW,225,1.3,4.7,42,0.00,,,0.00,WSDL version 420,2013-02-05 03:18:00,
2013-02-04 22:23:00,36.3,15.4,30.16,WNW,290,3.1,4.0,42,0.00,,,0.00,WSDL version 420,2013-02-05 03:23:00,
2013-02-04 22:28:00,36.2,15.3,30.16,SW,230,2.2,4.9,42,0.00,,,0.00,WSDL version 420,2013-02-05 03:28:00,
2013-02-04 22:33:00,36.2,15.3,30.13,WNW,298,1.5,4.9,42,0.00,,,0.00,WSDL version 420,2013-02-05 03:33:00,
2013-02-04 22:38:00,36.1,15.3,30.13,West,264,0.0,3.4,42,0.00,,,0.00,WSDL version 420,2013-02-05 03:38:00,
2013-02-04 22:43:00,36.0,15.4,30.13,West,280,1.7,3.4,43,0.00,,,0.00,WSDL version 420,2013-02-05 03:43:00,
2013-02-04 22:48:00,35.9,15.3,30.13,West,278,0.6,3.4,43,0.00,,,0.00,WSDL version 420,2013-02-05 03:48:00,
2013-02-04 22:53:00,35.8,15.5,30.13,WSW,244,2.0,3.6,43,0.00,,,0.00,WSDL version 420,2013-02-05 03:53:00,
2013-02-04 22:58:00,35.8,15.6,30.12,WNW,288,2.8,4.3,43,0.00,,,0.00,WSDL version 420,2013-02-05 03:58:00,
2013-02-04 23:03:00,35.8,15.5,30.12,West,265,0.7,4.3,43,0.00,,,0.00,WSDL version 420,2013-02-05 04:03:00,
2013-02-04 23:08:00,35.8,15.5,30.12,WNW,295,2.2,4.3,43,0.00,,,0.00,WSDL version 420,2013-02-05 04:08:00,
2013-02-04 23:13:00,35.8,15.5,30.12,WNW,293,2.7,4.0,43,0.00,,,0.00,WSDL version 420,2013-02-05 04:13:00,
2013-02-04 23:18:00,35.8,15.5,30.12,WNW,298,2.5,3.4,43,0.00,,,0.00,WSDL version 420,2013-02-05 04:18:00,
2013-02-04 23:23:00,35.8,15.6,30.12,West,268,1.8,3.4,44,0.00,,,0.00,WSDL version 420,2013-02-05 04:23:00,
2013-02-04 23:28:00,35.8,15.5,30.12,West,259,1.9,4.3,43,0.00,,,0.00,WSDL version 420,2013-02-05 04:28:00,
2013-02-04 23:33:00,35.5,15.4,30.12,West,278,0.0,4.3,44,0.00,,,0.00,WSDL version 420,2013-02-05 04:33:00,
2013-02-04 23:38:00,35.3,15.5,30.12,West,276,0.7,4.7,44,0.00,,,0.00,WSDL version 420,2013-02-05 04:38:00,
2013-02-04 23:43:00,35.0,15.2,30.12,West,273,0.8,4.7,44,0.00,,,0.00,WSDL version 420,2013-02-05 04:43:00,
2013-02-04 23:48:00,34.7,15.0,30.08,WNW,284,1.6,2.9,44,0.00,,,0.00,WSDL version 420,2013-02-05 04:48:00,
2013-02-04 23:53:00,34.2,14.6,30.08,West,262,2.3,3.8,44,0.00,,,0.00,WSDL version 420,2013-02-05 04:53:00,
2013-02-04 23:58:00,33.9,14.5,30.08,West,278,2.2,3.8,45,0.00,,,0.00,WSDL version 420,2013-02-05 04:58:00,